Regional Weather Roundup
Issued by NWS Austin/San Antonio, TX

Home | Current Version | Previous Version | Text Only | Print | Product List | Glossary On
Versions: 1 2 3 4 5 6 7 8 9 10 11 12 13 14 15 16 17 18 19 20 21 22 23 24 25 26 27 28 29 30 31 32 33 34 35 36 37 38 39 40 41 42 43 44 45 46 47 48 49 50
731
ASUS44 KEWX 210902
RWREWX
SOUTH TEXAS REGIONAL WEATHER ROUNDUP
NATIONAL WEATHER SERVICE AUSTIN/SAN ANTONIO TX
400 AM CDT WED AUG 21 2019

NOTE: "FAIR" INDICATED FEW OR NO CLOUDS BELOW 12,000 FEET WITH NO
SIGNIFICANT WEATHER AND/OR OBSTRUCTIONS TO VISIBILITY.

* - THESE STATIONS ARE NOT NWS OR FAA STATIONS...AND ARE NOT SUBJECT
    TO NWS AND FAA QUALITY CONTROL.

TXZ171-172-183>190-211000-
TEXAS HILL COUNTRY AND EDWARDS PLATEAU

CITY           SKY/WX    TMP DP  RH WIND       PRES   REMARKS
JUNCTION       CLEAR     79  66  64 CALM      30.05S
*LLANO         CLEAR     79  66  65 CALM      30.06R
BURNET         PTCLDY    80  68  66 S5        30.05F
*HORSESHOE BAY CLEAR     79  68  69 CALM      30.03S
*KERRVILLE     CLEAR     75  69  79 S5        30.06S
*FREDERICKSBRG CLEAR     76  64  68 CALM      30.06S
*ROCKSPRINGS   PTCLDY    75  66  73 SE10      30.12S
*BOERNE        CLEAR     73  70  88 CALM      30.06S
*CASTROVILLE   CLEAR     78  68  71 E3        30.04R
HONDO          CLEAR     75  68  78 E5        30.03R
*UVALDE        CLEAR     76  68  78 E5        30.03R
DEL RIO        CLEAR     83  69  62 E8        29.98R
LAUGHLIN AFB   CLEAR     81  70  68 SE12      29.99R
SPOFFORD       NOT AVBL
*EAGLE PASS    CLEAR     82  68  61 SE8       29.99R
CARRIZO SPRGS  CLEAR     81  70  69 S7        29.97S
$$

TXZ173-191>194-202-209-217>225-228-211000-
CENTRAL AND SOUTH CENTRAL TEXAS

CITY           SKY/WX    TMP DP  RH WIND       PRES   REMARKS
GEORGETOWN     CLEAR     81  72  74 S8        30.03F
AUSTIN/BERGSTM PTCLDY    78  73  84 CALM      30.01S
AUSTIN/MABRY   PTCLDY    80  72  76 S3        30.02F
*AUSTIN/EXEC   CLOUDY    75  72  88 SW3       30.02S
*LAGO VISTA    PTCLDY    78  71  79 S6        30.05R
SAN MARCOS     MOCLDY    79  74  84 S5        30.02F
NEW BRAUNFELS  PTCLDY    78  73  84 SW5       30.01S
RANDOLPH AFB   CLEAR     76  72  88 S3        30.02S
SEGUIN         PTCLDY    76  74  93 S3        30.05S
KELLY FIELD    CLEAR     77  72  84 S5        30.01S
SAN ANTONIO    PTCLDY    79  72  79 S8        30.03R
STINSON FIELD  CLEAR     79  72  79 SE3       30.00S
PLEASANTON     CLEAR     75  71  87 E3        30.01S
*LA GRANGE     CLEAR     78  78 100 CALM      29.99S
*GIDDINGS      MOCLDY    80  77  90 CALM      30.02S
*GONZALES      CLEAR     78  76  93 S3        30.00F
$$

TXZ163>164-176>182-195>201-210>213-226-227-235-211000-
SOUTHEAST TEXAS

CITY           SKY/WX    TMP DP  RH WIND       PRES   REMARKS
COLLEGE STN    CLEAR     78  75  90 SE5       30.01F
*BRYAN         CLEAR     78  78 100 S3        30.02F
*CALDWELL      PTCLDY    77  74  91 S5        30.02S
*CROCKETT      CLEAR     75  75 100 S5        30.04F
*BRENHAM       CLEAR     77  77 100 CALM      30.01F
HUNTSVILLE     CLEAR     77  74  90 S5        30.01F
CONROE         CLEAR     75  72  90 CALM      30.02S
HOUSTON BUSH   PTCLDY    78  75  90 CALM      30.00F
HOUSTON HOBBY  FAIR      80  75  84 SE3       30.00F
*HOUSTON SW AP FAIR      75  75 100 CALM      30.01F
PEARLAND       FAIR      80  76  87 CALM      30.01F
HOUSTON HOOKS  FAIR      76  73  91 CALM      30.01S
ELLINGTON FLD  MOCLDY    81  75  83 MISG      30.00S
SUGAR LAND     FAIR      77  76  96 CALM      30.00F
*HOUSTON EXEC  FAIR      77  77 100 CALM      30.01F
*CLEVELAND MUN FAIR      75  75 100 CALM      30.02S FOG
*WHARTON       CLEAR     75  73  94 SE3       30.00F
*COLUMBUS      FAIR      75  68  79 CALM      30.02S
*EAGLE LAKE    CLEAR     78  77  95 CALM      30.00S
$$

TXZ214>216-236>238-211000-
THE UPPER TEXAS COAST

CITY           SKY/WX    TMP DP  RH WIND       PRES   REMARKS
*ORANGE        FAIR      77  77 100 CALM      30.03S FOG
PORT ARTHUR    FAIR      79  76  90 CALM      30.00F
GALVESTON      FAIR      85  77  77 S10       30.00F HX  95
ANGLETON       FAIR      76  73  91 CALM      29.99F
*BAY CITY      CLEAR     78  77  98 E3        29.99F
PALACIOS       CLEAR     85  74  69 S8        29.98  HX  92
$$

TXZ229>234-239>247-211000-
TEXAS COASTAL BEND AND RIO GRANDE PLAINS

CITY           SKY/WX    TMP DP  RH WIND       PRES   REMARKS
VICTORIA       CLEAR     77  73  87 SE5       29.99F
*BEEVILLE      NOT AVBL
ROCKPORT       PTCLDY    83  76  79 S7        29.97F HX  91
*PORT ARANSAS  CLEAR     83  78  83 SE8       29.99F HX  94
*PORT LAVACA   CLEAR     80  76  88 S5        29.99F
*INGLESIDE     CLEAR     82  77  84 S5        29.97F HX  91
CORPUS CHRISTI PTCLDY    77  75  93 S3        29.98S
CORPUS NAS     CLEAR     82  80  94 S9        29.97S HX  94
*ROBSTOWN      CLEAR     78  74  87 SE3       29.98S
ALICE          CLEAR     74  72  93 E3        29.98S
KINGSVILLE NAS CLEAR     78  74  87 SE3       29.97F
COTULLA        CLEAR     80  73  79 S7        29.98F
LAREDO         CLEAR     81  73  76 SE8       29.97F
$$

TXZ248>255-211000-
DEEP SOUTH TEXAS

CITY           SKY/WX    TMP DP  RH WIND       PRES   REMARKS
BROWNSVILLE    FAIR      81  79  94 SE5       29.95F HX  90
PORT ISABEL    FAIR      81  76  84 SE6       29.96S
HARLINGEN      CLEAR     78  76  93 S3        29.96S
*HEBBRONVILLE  CLEAR     76  73  88 CALM      30.00S
MCALLEN        PTCLDY    81  75  82 SE5       29.97F
*WESLACO       MOCLDY    79  74  84 CALM      29.96S
FALFURRIAS     CLEAR     78  74  87 E3        29.97S
EDINBURG       FAIR      79  74  85 CALM      29.97F
*ZAPATA        FAIR      81  71  71 SE6       29.98F
$$

TXZ213>215-236>238-242>244-246-247-251-254-255-211000-
CMAN STATIONS

STATION/POSITION TIME  TEMP    WIND        PRES    WAVE
                       AIR SEA DIR/SP/G            HT/PER
                 (UTC) (F)     (DEG/KT/KT) (MB)    (FT/S)
SABINE PASS      0824   83 89  170/  4/  6 1017.9
NORTH JETTY/GLS  0824   86 87  170/ 10/ 13 1014.9
EAGLE POINT      0824   85 87  170/ 10/ 12 1015.1
MORGANS POINT    0824   84 88  170/  8/ 10 1015.8
PORT O`CONNOR    0824   85 88  160/ 11/ 13 1015.1
PORT ARANSAS     0800   83 86  140/ 11/ 12 1015.0
MALAQUITE BEACH  0824   83 85  130/  8/ 10 1014.7
BAFFIN BAY       0824   82 88  130/  8/ 10 1014.9
PORT ISABEL      0824   83 85  130/  9/ 11 1014.7
$$




USA.gov is the U.S. government's official web portal to all federal, state and local government web resources and services.